Year,Month,Day,Hour,Minute,Value (Times are PST for windgust in km/hr)
2013,09,24,00,00,6.40
2013,09,24,00,01,6.40
2013,09,24,00,02,6.40
2013,09,24,00,03,4.80
2013,09,24,00,04,4.80
2013,09,24,00,05,4.80
2013,09,24,00,06,6.40
2013,09,24,00,07,4.80
2013,09,24,00,08,3.20
2013,09,24,00,09,4.80
2013,09,24,00,10,6.40
2013,09,24,00,11,4.80
2013,09,24,00,12,4.80
2013,09,24,00,13,4.80
2013,09,24,00,14,4.80
2013,09,24,00,15,3.20
2013,09,24,00,16,4.80
2013,09,24,00,17,4.80
2013,09,24,00,18,1.60
2013,09,24,00,19,3.20
2013,09,24,00,20,4.80
2013,09,24,00,21,4.80
2013,09,24,00,22,4.80
2013,09,24,00,23,4.80
2013,09,24,00,24,4.80
2013,09,24,00,25,6.40
2013,09,24,00,26,4.80
2013,09,24,00,27,3.20
2013,09,24,00,28,3.20
2013,09,24,00,29,3.20
2013,09,24,00,30,1.60
2013,09,24,00,31,1.60
2013,09,24,00,32,3.20
2013,09,24,00,33,3.20
2013,09,24,00,34,3.20
2013,09,24,00,35,3.20
2013,09,24,00,36,3.20
2013,09,24,00,37,3.20
2013,09,24,00,38,3.20
2013,09,24,00,39,3.20
2013,09,24,00,40,3.20
2013,09,24,00,41,3.20
2013,09,24,00,42,3.20
2013,09,24,00,43,3.20
2013,09,24,00,44,3.20
2013,09,24,00,45,4.80
2013,09,24,00,46,6.40
2013,09,24,00,47,4.80
2013,09,24,00,48,4.80
2013,09,24,00,49,6.40
2013,09,24,00,50,6.40
2013,09,24,00,51,4.80
2013,09,24,00,52,4.80
2013,09,24,00,53,3.20
2013,09,24,00,54,3.20
2013,09,24,00,55,3.20
2013,09,24,00,56,4.80
2013,09,24,00,57,3.20
2013,09,24,00,58,3.20
2013,09,24,00,59,3.20
2013,09,24,01,00,3.20
2013,09,24,01,01,1.60
2013,09,24,01,02,1.60
2013,09,24,01,03,3.20
2013,09,24,01,04,1.60
2013,09,24,01,05,1.60
2013,09,24,01,06,3.20
2013,09,24,01,07,3.20
2013,09,24,01,08,1.60
2013,09,24,01,09,3.20
2013,09,24,01,10,4.80
2013,09,24,01,11,4.80
2013,09,24,01,12,4.80
2013,09,24,01,13,4.80
2013,09,24,01,14,3.20
2013,09,24,01,15,3.20
2013,09,24,01,16,3.20
2013,09,24,01,17,3.20
2013,09,24,01,18,3.20
2013,09,24,01,19,4.80
2013,09,24,01,20,4.80
2013,09,24,01,21,3.20
2013,09,24,01,22,4.80
2013,09,24,01,23,4.80
2013,09,24,01,24,4.80
2013,09,24,01,25,3.20
2013,09,24,01,26,1.60
2013,09,24,01,27,4.80
2013,09,24,01,28,3.20
2013,09,24,01,29,3.20
2013,09,24,01,30,3.20
2013,09,24,01,31,1.60
2013,09,24,01,32,3.20
2013,09,24,01,33,3.20
2013,09,24,01,34,3.20
2013,09,24,01,35,3.20
2013,09,24,01,36,3.20
2013,09,24,01,37,4.80
2013,09,24,01,38,3.20
2013,09,24,01,39,4.80
2013,09,24,01,40,3.20
2013,09,24,01,41,3.20
2013,09,24,01,42,3.20
2013,09,24,01,43,1.60
2013,09,24,01,44,3.20
2013,09,24,01,45,3.20
2013,09,24,01,46,3.20
2013,09,24,01,47,3.20
2013,09,24,01,48,4.80
2013,09,24,01,49,4.80
2013,09,24,01,50,4.80
2013,09,24,01,51,4.80
2013,09,24,01,52,3.20
2013,09,24,01,53,4.80
2013,09,24,01,54,4.80
2013,09,24,01,55,4.80
2013,09,24,01,56,3.20
2013,09,24,01,57,6.40
2013,09,24,01,58,4.80
2013,09,24,01,59,4.80
2013,09,24,02,00,4.80
2013,09,24,02,01,4.80
2013,09,24,02,02,4.80
2013,09,24,02,03,3.20
2013,09,24,02,04,3.20
2013,09,24,02,05,1.60
2013,09,24,02,06,3.20
2013,09,24,02,07,1.60
2013,09,24,02,08,1.60
2013,09,24,02,09,1.60
2013,09,24,02,10,1.60
2013,09,24,02,11,3.20
2013,09,24,02,12,3.20
2013,09,24,02,13,3.20
2013,09,24,02,14,3.20
2013,09,24,02,15,3.20
2013,09,24,02,16,3.20
2013,09,24,02,17,3.20
2013,09,24,02,18,3.20
2013,09,24,02,19,3.20
2013,09,24,02,20,3.20
2013,09,24,02,21,4.80
2013,09,24,02,22,4.80
2013,09,24,02,23,1.60
2013,09,24,02,24,1.60
2013,09,24,02,25,1.60
2013,09,24,02,26,1.60
2013,09,24,02,27,3.20
2013,09,24,02,28,1.60
2013,09,24,02,29,1.60
2013,09,24,02,30,1.60
2013,09,24,02,31,3.20
2013,09,24,02,32,3.20
2013,09,24,02,33,1.60
2013,09,24,02,34,1.60
2013,09,24,02,35,1.60
2013,09,24,02,36,1.60
2013,09,24,02,37,1.60
2013,09,24,02,38,1.60
2013,09,24,02,39,1.60
2013,09,24,02,40,1.60
2013,09,24,02,43,1.60
2013,09,24,02,44,1.60
2013,09,24,02,45,3.20
2013,09,24,02,46,4.80
2013,09,24,02,47,3.20
2013,09,24,02,48,4.80
2013,09,24,02,49,3.20
2013,09,24,02,50,4.80
2013,09,24,02,51,6.40
2013,09,24,02,52,4.80
2013,09,24,02,53,6.40
2013,09,24,02,54,4.80
2013,09,24,02,55,3.20
2013,09,24,02,56,4.80
2013,09,24,02,57,4.80
2013,09,24,02,58,4.80
2013,09,24,02,59,4.80
2013,09,24,03,00,4.80
2013,09,24,03,01,3.20
2013,09,24,03,02,1.60
2013,09,24,03,03,1.60
2013,09,24,03,04,3.20
2013,09,24,03,05,3.20
2013,09,24,03,06,3.20
2013,09,24,03,07,3.20
2013,09,24,03,08,3.20
2013,09,24,03,09,1.60
2013,09,24,03,10,3.20
2013,09,24,03,11,3.20
2013,09,24,03,12,3.20
2013,09,24,03,13,1.60
2013,09,24,03,15,1.60
2013,09,24,03,16,1.60
2013,09,24,03,17,1.60
2013,09,24,03,18,1.60
2013,09,24,03,19,1.60
2013,09,24,03,20,1.60
2013,09,24,03,21,1.60
2013,09,24,03,23,1.60
2013,09,24,03,24,1.60
2013,09,24,03,25,3.20
2013,09,24,03,26,3.20
2013,09,24,03,27,3.20
2013,09,24,03,28,3.20
2013,09,24,03,29,3.20
2013,09,24,03,30,3.20
2013,09,24,03,31,1.60
2013,09,24,03,32,3.20
2013,09,24,03,33,3.20
2013,09,24,03,34,3.20
2013,09,24,03,35,4.80
2013,09,24,03,36,3.20
2013,09,24,03,37,3.20
2013,09,24,03,38,3.20
2013,09,24,03,39,3.20
2013,09,24,03,40,3.20
2013,09,24,03,41,3.20
2013,09,24,03,42,3.20
2013,09,24,03,43,1.60
2013,09,24,03,44,1.60
2013,09,24,03,45,1.60
2013,09,24,03,46,1.60
2013,09,24,03,47,1.60
2013,09,24,03,48,1.60
2013,09,24,03,49,1.60
2013,09,24,03,50,1.60
2013,09,24,03,53,1.60
2013,09,24,03,54,1.60
2013,09,24,03,55,1.60
2013,09,24,03,56,1.60
2013,09,24,03,57,1.60
2013,09,24,04,03,1.60
2013,09,24,04,04,1.60
2013,09,24,04,05,3.20
2013,09,24,04,06,3.20
2013,09,24,04,07,4.80
2013,09,24,04,08,4.80
2013,09,24,04,09,3.20
2013,09,24,04,10,4.80
2013,09,24,04,11,3.20
2013,09,24,04,12,3.20
2013,09,24,04,13,3.20
2013,09,24,04,14,3.20
2013,09,24,04,15,1.60
2013,09,24,04,16,1.60
2013,09,24,04,17,1.60
2013,09,24,04,18,1.60
2013,09,24,04,19,1.60
2013,09,24,04,20,1.60
2013,09,24,04,21,1.60
2013,09,24,04,22,1.60
2013,09,24,04,23,3.20
2013,09,24,04,24,1.60
2013,09,24,04,25,1.60
2013,09,24,04,26,3.20
2013,09,24,04,27,4.80
2013,09,24,04,28,4.80
2013,09,24,04,29,4.80
2013,09,24,04,30,3.20
2013,09,24,04,31,3.20
2013,09,24,04,32,3.20
2013,09,24,04,33,3.20
2013,09,24,04,34,3.20
2013,09,24,04,35,3.20
2013,09,24,04,36,4.80
2013,09,24,04,37,4.80
2013,09,24,04,38,4.80
2013,09,24,04,39,4.80
2013,09,24,04,40,3.20
2013,09,24,04,41,1.60
2013,09,24,04,42,3.20
2013,09,24,04,43,3.20
2013,09,24,04,44,1.60
2013,09,24,04,46,1.60
2013,09,24,04,47,1.60
2013,09,24,04,48,1.60
2013,09,24,04,49,1.60
2013,09,24,04,50,1.60
2013,09,24,04,51,3.20
2013,09,24,04,52,4.80
2013,09,24,04,53,3.20
2013,09,24,04,54,3.20
2013,09,24,04,55,3.20
2013,09,24,04,56,3.20
2013,09,24,04,57,1.60
2013,09,24,04,58,1.60
2013,09,24,04,59,1.60
2013,09,24,05,00,3.20
2013,09,24,05,01,3.20
2013,09,24,05,02,3.20
2013,09,24,05,03,3.20
2013,09,24,05,04,3.20
2013,09,24,05,05,3.20
2013,09,24,05,06,1.60
2013,09,24,05,07,3.20
2013,09,24,05,08,1.60
2013,09,24,05,09,3.20
2013,09,24,05,10,1.60
2013,09,24,05,11,3.20
2013,09,24,05,12,3.20
2013,09,24,05,13,1.60
2013,09,24,05,15,1.60
2013,09,24,05,16,3.20
2013,09,24,05,17,3.20
2013,09,24,05,18,1.60
2013,09,24,05,19,3.20
2013,09,24,05,20,3.20
2013,09,24,05,21,3.20
2013,09,24,05,22,3.20
2013,09,24,05,23,3.20
2013,09,24,05,24,1.60
2013,09,24,05,25,1.60
2013,09,24,05,26,3.20
2013,09,24,05,27,1.60
2013,09,24,05,28,1.60
2013,09,24,05,29,6.40
2013,09,24,05,30,6.40
2013,09,24,05,31,4.80
2013,09,24,05,32,4.80
2013,09,24,05,33,3.20
2013,09,24,05,34,3.20
2013,09,24,05,35,1.60
2013,09,24,05,36,1.60
2013,09,24,05,38,1.60
2013,09,24,05,39,1.60
2013,09,24,05,40,1.60
2013,09,24,05,41,1.60
2013,09,24,05,42,1.60
2013,09,24,05,43,1.60
2013,09,24,05,44,1.60
2013,09,24,05,45,1.60
2013,09,24,05,46,1.60
2013,09,24,05,47,1.60
2013,09,24,05,48,1.60
2013,09,24,05,49,1.60
2013,09,24,05,50,1.60
2013,09,24,05,51,1.60
2013,09,24,05,52,1.60
2013,09,24,05,53,1.60
2013,09,24,05,54,1.60
2013,09,24,05,55,1.60
2013,09,24,05,56,1.60
2013,09,24,05,57,1.60
2013,09,24,05,58,3.20
2013,09,24,05,59,3.20
2013,09,24,06,00,3.20
2013,09,24,06,01,1.60
2013,09,24,06,02,3.20
2013,09,24,06,03,3.20
2013,09,24,06,04,3.20
2013,09,24,06,05,3.20
2013,09,24,06,06,3.20
2013,09,24,06,07,4.80
2013,09,24,06,08,4.80
2013,09,24,06,09,6.40
2013,09,24,06,10,6.40
2013,09,24,06,11,3.20
2013,09,24,06,12,3.20
2013,09,24,06,13,3.20
2013,09,24,06,14,1.60
2013,09,24,06,15,1.60
2013,09,24,06,16,1.60
2013,09,24,06,17,1.60
2013,09,24,06,18,1.60
2013,09,24,06,19,1.60
2013,09,24,06,20,1.60
2013,09,24,06,21,3.20
2013,09,24,06,22,3.20
2013,09,24,06,23,1.60
2013,09,24,06,24,1.60
2013,09,24,06,25,1.60
2013,09,24,06,26,1.60
2013,09,24,06,27,1.60
2013,09,24,06,28,1.60
2013,09,24,06,29,1.60
2013,09,24,06,30,3.20
2013,09,24,06,31,1.60
2013,09,24,06,32,1.60
2013,09,24,06,33,1.60
2013,09,24,06,34,1.60
2013,09,24,06,35,1.60
2013,09,24,06,36,1.60
2013,09,24,06,37,1.60
2013,09,24,06,38,1.60
2013,09,24,06,39,1.60
2013,09,24,06,40,1.60
2013,09,24,06,41,1.60
2013,09,24,06,42,1.60
2013,09,24,06,46,3.20
2013,09,24,06,47,1.60
2013,09,24,06,48,1.60
2013,09,24,06,49,1.60
2013,09,24,06,50,1.60
2013,09,24,06,51,1.60
2013,09,24,06,54,1.60
2013,09,24,06,55,1.60
2013,09,24,06,56,1.60
2013,09,24,06,57,1.60
2013,09,24,06,58,1.60
2013,09,24,06,59,1.60
2013,09,24,07,00,1.60
2013,09,24,07,01,1.60
2013,09,24,07,02,1.60
2013,09,24,07,03,1.60
2013,09,24,07,04,1.60
2013,09,24,07,05,1.60
2013,09,24,07,06,1.60
2013,09,24,07,07,1.60
2013,09,24,07,08,1.60
2013,09,24,07,09,1.60
2013,09,24,07,10,1.60
2013,09,24,07,11,1.60
2013,09,24,07,12,1.60
2013,09,24,07,13,3.20
2013,09,24,07,14,3.20
2013,09,24,07,15,3.20
2013,09,24,07,16,3.20
2013,09,24,07,17,4.80
2013,09,24,07,18,4.80
2013,09,24,07,19,4.80
2013,09,24,07,20,4.80
2013,09,24,07,21,4.80
2013,09,24,07,22,1.60
2013,09,24,07,23,3.20
2013,09,24,07,24,1.60
2013,09,24,07,25,1.60
2013,09,24,07,26,3.20
2013,09,24,07,27,6.40
2013,09,24,07,28,3.20
2013,09,24,07,29,4.80
2013,09,24,07,30,3.20
2013,09,24,07,31,3.20
2013,09,24,07,32,3.20
2013,09,24,07,33,3.20
2013,09,24,07,34,3.20
2013,09,24,07,35,3.20
2013,09,24,07,36,3.20
2013,09,24,07,37,3.20
2013,09,24,07,38,3.20
2013,09,24,07,39,3.20
2013,09,24,07,40,3.20
2013,09,24,07,41,3.20
2013,09,24,07,42,4.80
2013,09,24,07,43,3.20
2013,09,24,07,44,3.20
2013,09,24,07,45,3.20
2013,09,24,07,46,3.20
2013,09,24,07,47,3.20
2013,09,24,07,48,1.60
2013,09,24,07,49,3.20
2013,09,24,07,50,3.20
2013,09,24,07,51,3.20
2013,09,24,07,52,3.20
2013,09,24,07,53,3.20
2013,09,24,07,54,3.20
2013,09,24,07,55,4.80
2013,09,24,07,56,6.40
2013,09,24,07,57,3.20
2013,09,24,07,58,3.20
2013,09,24,07,59,3.20
2013,09,24,08,00,4.80
2013,09,24,08,01,3.20
2013,09,24,08,02,3.20
2013,09,24,08,03,3.20
2013,09,24,08,04,3.20
2013,09,24,08,05,1.60
2013,09,24,08,06,1.60
2013,09,24,08,07,1.60
2013,09,24,08,08,1.60
2013,09,24,08,09,1.60
2013,09,24,08,10,1.60
2013,09,24,08,12,1.60
2013,09,24,08,13,3.20
2013,09,24,08,14,4.80
2013,09,24,08,15,3.20
2013,09,24,08,16,3.20
2013,09,24,08,17,3.20
2013,09,24,08,18,3.20
2013,09,24,08,19,3.20
2013,09,24,08,20,3.20
2013,09,24,08,21,1.60
2013,09,24,08,22,1.60
2013,09,24,08,23,3.20
2013,09,24,08,24,3.20
2013,09,24,08,25,3.20
2013,09,24,08,26,4.80
2013,09,24,08,27,3.20
2013,09,24,08,28,1.60
2013,09,24,08,29,1.60
2013,09,24,08,30,3.20
2013,09,24,08,31,3.20
2013,09,24,08,32,3.20
2013,09,24,08,33,1.60
2013,09,24,08,34,1.60
2013,09,24,08,35,1.60
2013,09,24,08,36,3.20
2013,09,24,08,37,3.20
2013,09,24,08,38,1.60
2013,09,24,08,39,3.20
2013,09,24,08,40,3.20
2013,09,24,08,41,1.60
2013,09,24,08,42,3.20
2013,09,24,08,43,4.80
2013,09,24,08,44,3.20
2013,09,24,08,45,4.80
2013,09,24,08,46,12.90
2013,09,24,08,47,8.10
2013,09,24,08,48,11.30
2013,09,24,08,49,9.60
2013,09,24,08,50,11.30
2013,09,24,08,51,9.60
2013,09,24,08,52,6.40
2013,09,24,08,53,12.90
2013,09,24,08,54,12.90
2013,09,24,08,55,8.10
2013,09,24,08,56,6.40
2013,09,24,08,57,4.80
2013,09,24,08,58,3.20
2013,09,24,08,59,4.80
2013,09,24,09,00,3.20
2013,09,24,09,01,3.20
2013,09,24,09,02,3.20
2013,09,24,09,03,3.20
2013,09,24,09,04,3.20
2013,09,24,09,05,3.20
2013,09,24,09,06,4.80
2013,09,24,09,07,4.80
2013,09,24,09,08,4.80
2013,09,24,09,09,3.20
2013,09,24,09,10,3.20
2013,09,24,09,11,3.20
2013,09,24,09,12,4.80
2013,09,24,09,13,4.80
2013,09,24,09,14,4.80
2013,09,24,09,15,6.40
2013,09,24,09,16,6.40
2013,09,24,09,17,4.80
2013,09,24,09,18,3.20
2013,09,24,09,19,3.20
2013,09,24,09,20,6.40
2013,09,24,09,21,6.40
2013,09,24,09,22,4.80
2013,09,24,09,23,3.20
2013,09,24,09,24,4.80
2013,09,24,09,25,3.20
2013,09,24,09,26,4.80
2013,09,24,09,27,4.80
2013,09,24,09,28,4.80
2013,09,24,09,29,3.20
2013,09,24,09,30,3.20
2013,09,24,09,31,4.80
2013,09,24,09,32,4.80
2013,09,24,09,33,4.80
2013,09,24,09,34,3.20
2013,09,24,09,35,3.20
2013,09,24,09,36,3.20
2013,09,24,09,37,4.80
2013,09,24,09,38,3.20
2013,09,24,09,39,3.20
2013,09,24,09,40,3.20
2013,09,24,09,41,3.20
2013,09,24,09,42,3.20
2013,09,24,09,43,4.80
2013,09,24,09,44,4.80
2013,09,24,09,45,4.80
2013,09,24,09,46,4.80
2013,09,24,09,47,6.40
2013,09,24,09,48,4.80
2013,09,24,09,49,4.80
2013,09,24,09,50,4.80
2013,09,24,09,51,3.20
2013,09,24,09,52,1.60
2013,09,24,09,53,3.20
2013,09,24,09,54,3.20
2013,09,24,09,55,4.80
2013,09,24,09,56,4.80
2013,09,24,09,57,4.80
2013,09,24,09,58,4.80
2013,09,24,09,59,6.40
2013,09,24,10,00,6.40
2013,09,24,10,01,6.40
2013,09,24,10,02,4.80
2013,09,24,10,03,4.80
2013,09,24,10,04,4.80
2013,09,24,10,05,6.40
2013,09,24,10,06,4.80
2013,09,24,10,07,3.20
2013,09,24,10,08,4.80
2013,09,24,10,09,4.80
2013,09,24,10,10,6.40
2013,09,24,10,11,8.10
2013,09,24,10,12,6.40
2013,09,24,10,13,4.80
2013,09,24,10,14,8.10
2013,09,24,10,15,6.40
2013,09,24,10,16,4.80
2013,09,24,10,17,6.40
2013,09,24,10,18,6.40
2013,09,24,10,19,8.10
2013,09,24,10,20,8.10
2013,09,24,10,21,6.40
2013,09,24,10,22,8.10
2013,09,24,10,23,6.40
2013,09,24,10,24,11.30
2013,09,24,10,25,9.60
2013,09,24,10,26,6.40
2013,09,24,10,27,9.60
2013,09,24,10,28,8.10
2013,09,24,10,29,6.40
2013,09,24,10,30,8.10
2013,09,24,10,31,8.10
2013,09,24,10,32,6.40
2013,09,24,10,33,8.10
2013,09,24,10,34,6.40
2013,09,24,10,35,12.90
2013,09,24,10,36,9.60
2013,09,24,10,37,8.10
2013,09,24,10,38,8.10
2013,09,24,10,39,8.10
2013,09,24,10,40,8.10
2013,09,24,10,41,9.60
2013,09,24,10,42,8.10
2013,09,24,10,43,3.20
2013,09,24,10,44,6.40
2013,09,24,10,45,8.10
2013,09,24,10,46,8.10
2013,09,24,10,47,6.40
2013,09,24,10,48,4.80
2013,09,24,10,49,4.80
2013,09,24,10,50,6.40
2013,09,24,10,51,8.10
2013,09,24,10,52,9.60
2013,09,24,10,53,4.80
2013,09,24,10,54,4.80
2013,09,24,10,55,9.60
2013,09,24,10,56,11.30
2013,09,24,10,57,4.80
2013,09,24,10,58,4.80
2013,09,24,10,59,8.10
2013,09,24,11,00,6.40
2013,09,24,11,01,4.80
2013,09,24,11,02,6.40
2013,09,24,11,03,6.40
2013,09,24,11,04,3.20
2013,09,24,11,05,4.80
2013,09,24,11,06,6.40
2013,09,24,11,07,4.80
2013,09,24,11,08,6.40
2013,09,24,11,09,8.10
2013,09,24,11,10,8.10
2013,09,24,11,11,4.80
2013,09,24,11,12,4.80
2013,09,24,11,13,4.80
2013,09,24,11,14,6.40
2013,09,24,11,15,6.40
2013,09,24,11,16,8.10
2013,09,24,11,17,6.40
2013,09,24,11,18,8.10
2013,09,24,11,19,6.40
2013,09,24,11,20,8.10
2013,09,24,11,21,4.80
2013,09,24,11,22,3.20
2013,09,24,11,23,4.80
2013,09,24,11,24,8.10
2013,09,24,11,25,8.10
2013,09,24,11,26,8.10
2013,09,24,11,27,4.80
2013,09,24,11,28,4.80
2013,09,24,11,29,11.30
2013,09,24,11,30,6.40
2013,09,24,11,31,6.40
2013,09,24,11,32,6.40
2013,09,24,11,33,6.40
2013,09,24,11,34,4.80
2013,09,24,11,35,3.20
2013,09,24,11,36,3.20
2013,09,24,11,37,3.20
2013,09,24,11,38,3.20
2013,09,24,11,39,3.20
2013,09,24,11,40,3.20
2013,09,24,11,41,3.20
2013,09,24,11,42,4.80
2013,09,24,11,43,4.80
2013,09,24,11,44,6.40
2013,09,24,11,45,9.60
2013,09,24,11,46,6.40
2013,09,24,11,47,8.10
2013,09,24,11,48,12.90
2013,09,24,11,49,9.60
2013,09,24,11,50,11.30
2013,09,24,11,51,6.40
2013,09,24,11,52,8.10
2013,09,24,11,53,8.10
2013,09,24,11,54,4.80
2013,09,24,11,55,3.20
2013,09,24,11,56,3.20
2013,09,24,11,57,4.80
2013,09,24,11,58,6.40
2013,09,24,11,59,6.40
2013,09,24,12,00,11.30
2013,09,24,12,01,11.30
2013,09,24,12,02,6.40
2013,09,24,12,03,4.80
2013,09,24,12,04,11.30
2013,09,24,12,05,14.50
2013,09,24,12,06,17.70
2013,09,24,12,07,16.10
2013,09,24,12,08,16.10
2013,09,24,12,09,20.90
2013,09,24,12,10,20.90
2013,09,24,12,11,14.50
2013,09,24,12,12,12.90
2013,09,24,12,13,12.90
2013,09,24,12,14,12.90
2013,09,24,12,15,11.30
2013,09,24,12,16,9.60
2013,09,24,12,17,11.30
2013,09,24,12,18,11.30
2013,09,24,12,19,9.60
2013,09,24,12,20,12.90
2013,09,24,12,21,16.10
2013,09,24,12,22,14.50
2013,09,24,12,23,14.50
2013,09,24,12,24,16.10
2013,09,24,12,25,11.30
2013,09,24,12,26,14.50
2013,09,24,12,27,14.50
2013,09,24,12,28,16.10
2013,09,24,12,29,11.30
2013,09,24,12,30,12.90
2013,09,24,12,31,8.10
2013,09,24,12,32,12.90
2013,09,24,12,33,9.60
2013,09,24,12,34,4.80
2013,09,24,12,35,12.90
2013,09,24,12,36,12.90
2013,09,24,12,37,9.60
2013,09,24,12,38,11.30
2013,09,24,12,39,8.10
2013,09,24,12,40,11.30
2013,09,24,12,41,8.10
2013,09,24,12,42,6.40
2013,09,24,12,43,11.30
2013,09,24,12,44,16.10
2013,09,24,12,45,17.70
2013,09,24,12,46,14.50
2013,09,24,12,47,16.10
2013,09,24,12,48,17.70
2013,09,24,12,49,11.30
2013,09,24,12,50,11.30
2013,09,24,12,51,12.90
2013,09,24,12,52,11.30
2013,09,24,12,53,9.60
2013,09,24,12,54,11.30
2013,09,24,12,55,12.90
2013,09,24,12,56,8.10
2013,09,24,12,57,16.10
2013,09,24,12,58,12.90
2013,09,24,12,59,6.40
2013,09,24,13,00,11.30
2013,09,24,13,01,6.40
2013,09,24,13,02,11.30
2013,09,24,13,03,9.60
2013,09,24,13,04,8.10
2013,09,24,13,05,9.60
2013,09,24,13,06,9.60
2013,09,24,13,07,12.90
2013,09,24,13,08,11.30
2013,09,24,13,09,8.10
2013,09,24,13,10,6.40
2013,09,24,13,11,8.10
2013,09,24,13,12,8.10
2013,09,24,13,13,9.60
2013,09,24,13,14,9.60
2013,09,24,13,15,11.30
2013,09,24,13,16,9.60
2013,09,24,13,17,11.30
2013,09,24,13,18,11.30
2013,09,24,13,19,11.30
2013,09,24,13,20,11.30
2013,09,24,13,21,9.60
2013,09,24,13,22,11.30
2013,09,24,13,23,6.40
2013,09,24,13,24,12.90
2013,09,24,13,25,11.30
2013,09,24,13,26,9.60
2013,09,24,13,27,8.10
2013,09,24,13,28,9.60
2013,09,24,13,29,9.60
2013,09,24,13,30,11.30
2013,09,24,13,31,9.60
2013,09,24,13,32,9.60
2013,09,24,13,33,9.60
2013,09,24,13,34,11.30
2013,09,24,13,35,9.60
2013,09,24,13,36,8.10
2013,09,24,13,37,9.60
2013,09,24,13,38,9.60
2013,09,24,13,39,8.10
2013,09,24,13,40,8.10
2013,09,24,13,41,4.80
2013,09,24,13,42,8.10
2013,09,24,13,43,8.10
2013,09,24,13,44,6.40
2013,09,24,13,45,9.60
2013,09,24,13,46,9.60
2013,09,24,13,47,6.40
2013,09,24,13,48,8.10
2013,09,24,13,49,9.60
2013,09,24,13,50,8.10
2013,09,24,13,51,11.30
2013,09,24,13,52,9.60
2013,09,24,13,53,9.60
2013,09,24,13,54,9.60
2013,09,24,13,55,8.10
2013,09,24,13,56,6.40
2013,09,24,13,57,4.80
2013,09,24,13,58,4.80
2013,09,24,13,59,4.80
2013,09,24,14,00,4.80
2013,09,24,14,01,4.80
2013,09,24,14,02,3.20
2013,09,24,14,03,6.40
2013,09,24,14,04,6.40
2013,09,24,14,05,1.60
2013,09,24,14,06,1.60
2013,09,24,14,07,3.20
2013,09,24,14,08,3.20
2013,09,24,14,09,3.20
2013,09,24,14,10,3.20
2013,09,24,14,11,6.40
2013,09,24,14,12,3.20
2013,09,24,14,13,6.40
2013,09,24,14,14,6.40
2013,09,24,14,15,6.40
2013,09,24,14,16,6.40
2013,09,24,14,17,6.40
2013,09,24,14,18,6.40
2013,09,24,14,19,4.80
2013,09,24,14,20,3.20
2013,09,24,14,21,3.20
2013,09,24,14,22,4.80
2013,09,24,14,23,4.80
2013,09,24,14,24,3.20
2013,09,24,14,25,4.80
2013,09,24,14,26,4.80
2013,09,24,14,27,4.80
2013,09,24,14,28,3.20
2013,09,24,14,29,4.80
2013,09,24,14,30,3.20
2013,09,24,14,31,3.20
2013,09,24,14,32,4.80
2013,09,24,14,33,8.10
2013,09,24,14,34,8.10
2013,09,24,14,35,6.40
2013,09,24,14,36,8.10
2013,09,24,14,37,6.40
2013,09,24,14,38,6.40
2013,09,24,14,39,9.60
2013,09,24,14,40,6.40
2013,09,24,14,41,6.40
2013,09,24,14,42,4.80
2013,09,24,14,43,4.80
2013,09,24,14,44,9.60
2013,09,24,14,45,11.30
2013,09,24,14,46,8.10
2013,09,24,14,47,6.40
2013,09,24,14,48,6.40
2013,09,24,14,49,6.40
2013,09,24,14,50,8.10
2013,09,24,14,51,6.40
2013,09,24,14,52,6.40
2013,09,24,14,53,6.40
2013,09,24,14,54,4.80
2013,09,24,14,55,6.40
2013,09,24,14,56,8.10
2013,09,24,14,57,6.40
2013,09,24,14,58,4.80
2013,09,24,14,59,3.20
2013,09,24,15,00,6.40
2013,09,24,15,01,6.40
2013,09,24,15,02,4.80
2013,09,24,15,03,6.40
2013,09,24,15,04,6.40
2013,09,24,15,05,6.40
2013,09,24,15,06,6.40
2013,09,24,15,07,6.40
2013,09,24,15,08,11.30
2013,09,24,15,09,6.40
2013,09,24,15,10,8.10
2013,09,24,15,11,8.10
2013,09,24,15,12,9.60
2013,09,24,15,13,6.40
2013,09,24,15,14,8.10
2013,09,24,15,15,9.60
2013,09,24,15,16,8.10
2013,09,24,15,17,8.10
2013,09,24,15,18,6.40
2013,09,24,15,19,3.20
2013,09,24,15,20,8.10
2013,09,24,15,21,6.40
2013,09,24,15,22,4.80
2013,09,24,15,23,4.80
2013,09,24,15,24,3.20
2013,09,24,15,25,3.20
2013,09,24,15,26,4.80
2013,09,24,15,27,3.20
2013,09,24,15,28,4.80
2013,09,24,15,29,4.80
2013,09,24,15,30,4.80
2013,09,24,15,31,3.20
2013,09,24,15,32,4.80
2013,09,24,15,33,9.60
2013,09,24,15,34,12.90
2013,09,24,15,35,14.50
2013,09,24,15,36,16.10
2013,09,24,15,37,12.90
2013,09,24,15,38,12.90
2013,09,24,15,39,9.60
2013,09,24,15,40,14.50
2013,09,24,15,41,11.30
2013,09,24,15,42,11.30
2013,09,24,15,43,12.90
2013,09,24,15,44,14.50
2013,09,24,15,45,14.50
2013,09,24,15,46,12.90
2013,09,24,15,47,6.40
2013,09,24,15,48,12.90
2013,09,24,15,49,9.60
2013,09,24,15,50,11.30
2013,09,24,15,51,12.90
2013,09,24,15,52,8.10
2013,09,24,15,53,12.90
2013,09,24,15,54,16.10
2013,09,24,15,55,14.50
2013,09,24,15,56,8.10
2013,09,24,15,57,12.90
2013,09,24,15,58,12.90
2013,09,24,15,59,8.10
2013,09,24,16,00,8.10
2013,09,24,16,01,12.90
2013,09,24,16,02,12.90
2013,09,24,16,03,12.90
2013,09,24,16,04,16.10
2013,09,24,16,05,14.50
2013,09,24,16,06,19.30
2013,09,24,16,07,14.50
2013,09,24,16,08,12.90
2013,09,24,16,09,9.60
2013,09,24,16,10,8.10
2013,09,24,16,11,9.60
2013,09,24,16,12,9.60
2013,09,24,16,13,6.40
2013,09,24,16,14,9.60
2013,09,24,16,15,6.40
2013,09,24,16,16,8.10
2013,09,24,16,17,6.40
2013,09,24,16,18,6.40
2013,09,24,16,19,8.10
2013,09,24,16,20,12.90
2013,09,24,16,21,8.10
2013,09,24,16,22,8.10
2013,09,24,16,23,8.10
2013,09,24,16,24,6.40
2013,09,24,16,25,8.10
2013,09,24,16,26,8.10
2013,09,24,16,27,11.30
2013,09,24,16,28,6.40
2013,09,24,16,29,11.30
2013,09,24,16,30,8.10
2013,09,24,16,31,8.10
2013,09,24,16,32,6.40
2013,09,24,16,33,4.80
2013,09,24,16,34,4.80
2013,09,24,16,35,12.90
2013,09,24,16,36,8.10
2013,09,24,16,37,8.10
2013,09,24,16,38,8.10
2013,09,24,16,39,8.10
2013,09,24,16,40,9.60
2013,09,24,16,41,4.80
2013,09,24,16,42,4.80
2013,09,24,16,43,4.80
2013,09,24,16,44,6.40
2013,09,24,16,45,4.80
2013,09,24,16,46,4.80
2013,09,24,16,47,6.40
2013,09,24,16,48,8.10
2013,09,24,16,49,8.10
2013,09,24,16,50,4.80
2013,09,24,16,51,6.40
2013,09,24,16,52,4.80
2013,09,24,16,53,12.90
2013,09,24,16,54,9.60
2013,09,24,16,55,6.40
2013,09,24,16,56,6.40
2013,09,24,16,57,12.90
2013,09,24,16,58,14.50
2013,09,24,16,59,14.50
2013,09,24,17,00,9.60
2013,09,24,17,01,12.90
2013,09,24,17,02,6.40
2013,09,24,17,03,6.40
2013,09,24,17,04,6.40
2013,09,24,17,05,9.60
2013,09,24,17,06,14.50
2013,09,24,17,07,8.10
2013,09,24,17,08,4.80
2013,09,24,17,09,9.60
2013,09,24,17,10,6.40
2013,09,24,17,11,4.80
2013,09,24,17,12,6.40
2013,09,24,17,13,6.40
2013,09,24,17,14,4.80
2013,09,24,17,15,14.50
2013,09,24,17,16,11.30
2013,09,24,17,17,12.90
2013,09,24,17,18,11.30
2013,09,24,17,19,3.20
2013,09,24,17,20,8.10
2013,09,24,17,21,11.30
2013,09,24,17,22,6.40
2013,09,24,17,23,11.30
2013,09,24,17,24,11.30
2013,09,24,17,25,11.30
2013,09,24,17,26,11.30
2013,09,24,17,27,8.10
2013,09,24,17,28,11.30
2013,09,24,17,29,11.30
2013,09,24,17,30,12.90
2013,09,24,17,31,12.90
2013,09,24,17,32,6.40
2013,09,24,17,33,6.40
2013,09,24,17,34,8.10
2013,09,24,17,35,8.10
2013,09,24,17,36,6.40
2013,09,24,17,37,4.80
2013,09,24,17,38,8.10
2013,09,24,17,39,6.40
2013,09,24,17,40,6.40
2013,09,24,17,41,6.40
2013,09,24,17,42,4.80
2013,09,24,17,43,6.40
2013,09,24,17,44,8.10
2013,09,24,17,45,11.30
2013,09,24,17,46,11.30
2013,09,24,17,47,6.40
2013,09,24,17,48,6.40
2013,09,24,17,49,6.40
2013,09,24,17,50,4.80
2013,09,24,17,51,3.20
2013,09,24,17,52,3.20
2013,09,24,17,53,6.40
2013,09,24,17,54,4.80
2013,09,24,17,55,3.20
2013,09,24,17,56,4.80
2013,09,24,17,57,6.40
2013,09,24,17,58,4.80
2013,09,24,17,59,6.40
2013,09,24,18,00,4.80
2013,09,24,18,01,3.20
2013,09,24,18,02,6.40
2013,09,24,18,03,4.80
2013,09,24,18,04,1.60
2013,09,24,18,05,3.20
2013,09,24,18,06,3.20
2013,09,24,18,07,4.80
2013,09,24,18,08,3.20
2013,09,24,18,09,3.20
2013,09,24,18,10,4.80
2013,09,24,18,11,3.20
2013,09,24,18,12,3.20
2013,09,24,18,13,3.20
2013,09,24,18,14,4.80
2013,09,24,18,15,4.80
2013,09,24,18,16,4.80
2013,09,24,18,17,4.80
2013,09,24,18,18,3.20
2013,09,24,18,19,3.20
2013,09,24,18,20,1.60